Weather History for KPHN - May, 2013

Change the Weather History Date:

Tuesday, May 7, 2013

  Actual Average Record
Temperature  
Mean Temperature 58 °F -  
Max Temperature 73 °F - - ()
Min Temperature 42 °F - - ()
Degree Days  
Heating Degree Days 8    
Growing Degree Days 8 (Base 50)    
Moisture  
Dew Point 47 °F    
Average Humidity 68    
Maximum Humidity 100    
Minimum Humidity 45    
Precipitation  
Precipitation 0.00 in - - ()
Sea Level Pressure  
Sea Level Pressure 30.05 in    
Wind  
Wind Speed 2 mph (NE)    
Max Wind Speed 14 mph    
Max Gust Speed 17 mph    
Visibility 10 miles    
Events      
T = Trace of Precipitation, MM = Missing Value Source: NWS Daily Summary

Daily Weather History Graph

Daily Weather History Graph

Search for Another Location

Airport or City:

Trip Planner

Search our weather history database for the weather conditions in past years. The results will help you decide how hot, cold, wet, or windy it might be!

Date:

Astronomy

May. 07, 2013 Rise Set
Actual Time 6:15 AM EDT 8:37 PM EDT
Civil Twilight 5:44 AM EDT 9:09 PM EDT
Nautical Twilight 5:05 AM EDT 9:49 PM EDT
Astronomical Twilight 4:21 AM EDT 10:33 PM EDT
Moon 4:52 AM EDT (5/7) 6:34 PM EDT (5/7)
Length of Visible Light 15h 25m
Length of Day
14h 22m
Waning Crescent, 5% of the Moon is Illuminated
May 7
Waning Crescent
May 9
New
May 18
First Quarter
May 25
Full
May 31
Last Quarter

Hourly Weather History & Observations

Time (EDT) Temp. Dew Point Humidity Pressure Visibility Wind Dir Wind Speed Gust Speed Precip Events Conditions
12:17 AM 46.4 °F 42.8 °F 87% 30.05 in 10.0 mi Calm Calm - N/A   Clear
12:37 AM 46.4 °F 41.0 °F 81% 30.05 in 10.0 mi Calm Calm - N/A   Clear
12:57 AM 48.2 °F 41.0 °F 76% 30.06 in 10.0 mi Calm Calm - N/A   Clear
1:17 AM 46.4 °F 42.8 °F 87% 30.06 in 10.0 mi Calm Calm - N/A   Clear
1:37 AM 46.4 °F 41.0 °F 81% 30.05 in 10.0 mi Calm Calm - N/A   Clear
1:57 AM 46.4 °F 42.8 °F 87% 30.05 in 10.0 mi Calm Calm - N/A   Clear
2:17 AM 46.4 °F 42.8 °F 87% 30.05 in 10.0 mi Calm Calm - N/A   Clear
2:37 AM 46.4 °F 42.8 °F 87% 30.04 in 10.0 mi Calm Calm - N/A   Clear
2:57 AM 44.6 °F 42.8 °F 93% 30.04 in 10.0 mi Calm Calm - N/A   Clear
3:17 AM 44.6 °F 41.0 °F 87% 30.04 in 10.0 mi Calm Calm - N/A   Clear
3:37 AM 44.6 °F 41.0 °F 87% 30.04 in 10.0 mi Calm Calm - N/A   Clear
3:57 AM 46.4 °F 41.0 °F 81% 30.04 in 10.0 mi Calm Calm - N/A   Clear
4:17 AM 44.6 °F 41.0 °F 87% 30.04 in 10.0 mi Calm Calm - N/A   Clear
4:37 AM 46.4 °F 41.0 °F 81% 30.04 in 10.0 mi Calm Calm - N/A   Clear
4:57 AM 44.6 °F 41.0 °F 87% 30.04 in 10.0 mi Calm Calm - N/A   Clear
5:17 AM 42.8 °F 41.0 °F 93% 30.04 in 10.0 mi Calm Calm - N/A   Clear
5:37 AM 42.8 °F 41.0 °F 93% 30.05 in 10.0 mi Calm Calm - N/A   Clear
5:57 AM 42.8 °F 42.8 °F 100% 30.05 in 10.0 mi Calm Calm - N/A   Clear
6:17 AM 42.8 °F 41.0 °F 93% 30.06 in 10.0 mi Calm Calm - N/A   Clear
6:37 AM 42.8 °F 41.0 °F 93% 30.06 in 10.0 mi Calm Calm - N/A   Clear
6:57 AM 44.6 °F 42.8 °F 93% 30.07 in 10.0 mi Calm Calm - N/A   Clear
7:17 AM 46.4 °F 44.6 °F 93% 30.07 in 10.0 mi Calm Calm - N/A   Clear
7:37 AM 48.2 °F 46.4 °F 93% 30.08 in 10.0 mi Calm Calm - N/A   Clear
7:57 AM 51.8 °F 46.4 °F 82% 30.08 in 10.0 mi Calm Calm - N/A   Clear
8:17 AM 55.4 °F 48.2 °F 77% 30.09 in 10.0 mi Calm Calm - N/A   Clear
8:37 AM 57.2 °F 50.0 °F 77% 30.09 in 10.0 mi Calm Calm - N/A   Clear
8:57 AM 60.8 °F 50.0 °F 68% 30.09 in 10.0 mi Calm Calm - N/A   Clear
9:17 AM 62.6 °F 51.8 °F 68% 30.09 in 10.0 mi East 3.5 mph - N/A   Clear
9:37 AM 64.4 °F 53.6 °F 68% 30.09 in 10.0 mi East 4.6 mph - N/A   Clear
9:57 AM 66.2 °F 55.4 °F 68% 30.09 in 10.0 mi East 4.6 mph - N/A   Scattered Clouds
10:17 AM 66.2 °F 55.4 °F 68% 30.09 in 10.0 mi East 3.5 mph - N/A   Clear
10:37 AM 68.0 °F 55.4 °F 64% 30.09 in 10.0 mi East 4.6 mph - N/A   Clear
10:57 AM 68.0 °F 55.4 °F 64% 30.09 in 10.0 mi Calm Calm - N/A   Clear
11:17 AM 68.0 °F 55.4 °F 64% 30.08 in 10.0 mi Calm Calm - N/A   Clear
11:37 AM 69.8 °F 55.4 °F 60% 30.08 in 10.0 mi East 5.8 mph - N/A   Clear
11:57 AM 71.6 °F 55.4 °F 57% 30.07 in 10.0 mi East 5.8 mph - N/A   Clear
12:17 PM 71.6 °F 55.4 °F 57% 30.07 in 10.0 mi East 5.8 mph - N/A   Clear
12:37 PM 71.6 °F 55.4 °F 57% 30.06 in 10.0 mi ENE 11.5 mph - N/A   Scattered Clouds
12:57 PM 73.4 °F 55.4 °F 53% 30.06 in 10.0 mi East 8.1 mph - N/A   Scattered Clouds
1:17 PM 71.6 °F 55.4 °F 57% 30.06 in 10.0 mi NE 5.8 mph - N/A   Scattered Clouds
1:37 PM 71.6 °F 57.2 °F 60% 30.05 in 10.0 mi NE 9.2 mph - N/A   Scattered Clouds
1:57 PM 71.6 °F 55.4 °F 57% 30.05 in 10.0 mi NE 9.2 mph 16.1 mph N/A   Scattered Clouds
2:17 PM 71.6 °F 55.4 °F 57% 30.05 in 10.0 mi NE 10.4 mph - N/A   Clear
2:37 PM 71.6 °F 55.4 °F 57% 30.04 in 10.0 mi NE 9.2 mph - N/A   Clear
2:57 PM 71.6 °F 55.4 °F 57% 30.04 in 10.0 mi NE 9.2 mph - N/A   Clear
3:17 PM 71.6 °F 55.4 °F 57% 30.04 in 10.0 mi NE 9.2 mph - N/A   Clear
3:37 PM 73.4 °F 55.4 °F 53% 30.03 in 10.0 mi NE 6.9 mph - N/A   Clear
3:57 PM 73.4 °F 55.4 °F 53% 30.03 in 10.0 mi ENE 8.1 mph - N/A   Clear
4:17 PM 71.6 °F 55.4 °F 57% 30.03 in 10.0 mi NE 12.7 mph - N/A   Clear
4:37 PM 71.6 °F 55.4 °F 57% 30.02 in 10.0 mi NE 11.5 mph - N/A   Clear
4:57 PM 71.6 °F 55.4 °F 57% 30.02 in 10.0 mi NE 10.4 mph - N/A   Clear
5:17 PM 69.8 °F 55.4 °F 60% 30.02 in 10.0 mi NE 10.4 mph 17.3 mph N/A   Clear
5:37 PM 69.8 °F 53.6 °F 56% 30.02 in 10.0 mi NNE 11.5 mph - N/A   Clear
5:57 PM 68.0 °F 53.6 °F 60% 30.02 in 10.0 mi NE 13.8 mph - N/A   Clear
6:17 PM 68.0 °F 53.6 °F 60% 30.02 in 10.0 mi NE 9.2 mph - N/A   Clear
6:37 PM 66.2 °F 51.8 °F 60% 30.03 in 10.0 mi NE 12.7 mph - N/A   Clear
6:57 PM 64.4 °F 51.8 °F 64% 30.03 in 10.0 mi NE 10.4 mph - N/A   Clear
7:17 PM 62.6 °F 48.2 °F 59% 30.03 in 10.0 mi NNE 9.2 mph - N/A   Clear
7:37 PM 60.8 °F 44.6 °F 55% 30.03 in 10.0 mi NNE 9.2 mph - N/A   Clear
7:57 PM 59.0 °F 44.6 °F 59% 30.03 in 10.0 mi North 4.6 mph - N/A   Clear
8:17 PM 59.0 °F 41.0 °F 51% 30.03 in 10.0 mi NNE 5.8 mph - N/A   Clear
8:37 PM 59.0 °F 37.4 °F 45% 30.03 in 10.0 mi NNE 6.9 mph - N/A   Clear
8:57 PM 57.2 °F 37.4 °F 48% 30.03 in 10.0 mi NNE 4.6 mph - N/A   Clear
9:17 PM 57.2 °F 37.4 °F 48% 30.03 in 10.0 mi NNE 4.6 mph - N/A   Clear
9:37 PM 55.4 °F 37.4 °F 51% 30.04 in 10.0 mi Calm Calm - N/A   Clear
9:57 PM 55.4 °F 37.4 °F 51% 30.04 in 10.0 mi NNE 3.5 mph - N/A   Clear
10:17 PM 55.4 °F 37.4 °F 51% 30.04 in 10.0 mi Calm Calm - N/A   Clear
10:37 PM 53.6 °F 37.4 °F 54% 30.04 in 10.0 mi Calm Calm - N/A   Clear
10:57 PM 53.6 °F 37.4 °F 54% 30.04 in 10.0 mi Calm Calm - N/A   Clear
11:17 PM 53.6 °F 39.2 °F 58% 30.04 in 10.0 mi Calm Calm - N/A   Clear
11:37 PM 53.6 °F 39.2 °F 58% 30.04 in 10.0 mi Calm Calm - N/A   Clear
11:57 PM 53.6 °F 39.2 °F 58% 30.03 in 10.0 mi Calm Calm - N/A   Clear